Time,TemperatureF,DewpointF,PressureIn,WindDirection,WindDirectionDegrees,WindSpeedMPH,WindSpeedGustMPH,Humidity,HourlyPrecipIn,Conditions,Clouds,dailyrainin,SoftwareType,DateUTC
2015-04-01 00:04:00,29.3,4.4,29.97,North,351,0.0,0.0,34,0.00,,,0.00,WeatherDisplay:10.34,2015-04-01 04:04:00,
2015-04-01 00:09:00,29.3,4.4,29.97,North,351,0.0,0.0,34,0.00,,,0.00,WeatherDisplay:10.34,2015-04-01 04:09:00,
2015-04-01 00:14:00,29.1,3.5,29.97,NNW,347,0.0,0.0,33,0.00,,,0.00,WeatherDisplay:10.34,2015-04-01 04:14:00,
2015-04-01 00:19:00,29.3,3.7,29.97,North,351,0.0,0.0,33,0.00,,,0.00,WeatherDisplay:10.34,2015-04-01 04:19:00,
2015-04-01 00:24:00,29.3,3.7,29.97,North,351,0.0,0.0,33,0.00,,,0.00,WeatherDisplay:10.34,2015-04-01 04:24:00,
2015-04-01 00:29:00,29.3,3.7,29.97,North,351,0.0,0.0,33,0.00,,,0.00,WeatherDisplay:10.34,2015-04-01 04:29:00,
2015-04-01 00:34:00,28.9,2.7,29.97,ENE,60,0.0,3.0,32,0.00,,,0.00,WeatherDisplay:10.34,2015-04-01 04:34:00,
2015-04-01 00:39:00,28.8,2.6,29.97,NNE,24,0.0,2.0,32,0.00,,,0.00,WeatherDisplay:10.34,2015-04-01 04:39:00,
2015-04-01 00:44:00,28.8,2.6,29.97,ENE,60,0.0,2.0,32,0.00,,,0.00,WeatherDisplay:10.34,2015-04-01 04:44:00,
2015-04-01 00:49:00,28.8,2.6,29.97,ENE,75,0.0,3.0,32,0.00,,,0.00,WeatherDisplay:10.34,2015-04-01 04:49:00,
2015-04-01 00:54:00,28.6,2.4,29.97,ENE,75,0.0,0.0,32,0.00,,,0.00,WeatherDisplay:10.34,2015-04-01 04:54:00,
2015-04-01 00:59:00,28.4,2.2,30.00,ENE,75,0.0,0.0,32,0.00,,,0.00,WeatherDisplay:10.34,2015-04-01 04:59:00,
2015-04-01 01:04:00,28.4,2.2,30.00,ENE,75,0.0,0.0,32,0.00,,,0.00,WeatherDisplay:10.34,2015-04-01 05:04:00,
2015-04-01 01:09:00,28.4,2.2,30.00,ENE,75,0.0,0.0,32,0.00,,,0.00,WeatherDisplay:10.34,2015-04-01 05:09:00,
2015-04-01 01:14:00,28.4,2.2,30.00,ENE,75,0.0,0.0,32,0.00,,,0.00,WeatherDisplay:10.34,2015-04-01 05:14:00,
2015-04-01 01:19:00,28.4,2.9,30.00,ENE,75,0.0,0.0,33,0.00,,,0.00,WeatherDisplay:10.34,2015-04-01 05:19:00,
2015-04-01 01:24:00,28.4,2.9,30.00,ENE,73,0.0,0.0,33,0.00,,,0.00,WeatherDisplay:10.34,2015-04-01 05:24:00,
2015-04-01 01:29:00,28.4,2.9,30.00,ENE,73,0.0,0.0,33,0.00,,,0.00,WeatherDisplay:10.34,2015-04-01 05:29:00,
2015-04-01 01:34:00,28.2,2.7,30.00,ENE,73,0.0,0.0,33,0.00,,,0.00,WeatherDisplay:10.34,2015-04-01 05:34:00,
2015-04-01 01:39:00,28.2,2.7,30.00,ENE,73,0.0,0.0,33,0.00,,,0.00,WeatherDisplay:10.34,2015-04-01 05:39:00,
2015-04-01 01:44:00,28.2,2.7,30.00,ENE,73,0.0,0.0,33,0.00,,,0.00,WeatherDisplay:10.34,2015-04-01 05:44:00,
2015-04-01 01:49:00,28.2,2.7,30.00,ENE,73,0.0,0.0,33,0.00,,,0.00,WeatherDisplay:10.34,2015-04-01 05:49:00,
2015-04-01 01:54:00,28.2,2.7,30.00,NE,55,0.0,0.0,33,0.00,,,0.00,WeatherDisplay:10.34,2015-04-01 05:54:00,
2015-04-01 01:59:00,28.0,1.9,30.00,NE,55,0.0,0.0,32,0.00,,,0.00,WeatherDisplay:10.34,2015-04-01 05:59:00,
2015-04-01 02:04:00,28.0,1.9,30.00,NE,42,0.0,0.0,32,0.00,,,0.00,WeatherDisplay:10.34,2015-04-01 06:04:00,
2015-04-01 02:09:00,27.9,1.8,30.00,NE,42,0.0,0.0,32,0.00,,,0.00,WeatherDisplay:10.34,2015-04-01 06:09:00,
2015-04-01 02:14:00,27.5,1.4,30.00,NE,46,0.0,0.0,32,0.00,,,0.00,WeatherDisplay:10.34,2015-04-01 06:14:00,
2015-04-01 02:19:00,27.3,1.3,30.00,NE,46,0.0,0.0,32,0.00,,,0.00,WeatherDisplay:10.34,2015-04-01 06:19:00,
2015-04-01 02:24:00,27.3,1.3,30.00,NE,46,0.0,0.0,32,0.00,,,0.00,WeatherDisplay:10.34,2015-04-01 06:24:00,
2015-04-01 02:29:00,27.3,1.3,30.00,NE,46,0.0,0.0,32,0.00,,,0.00,WeatherDisplay:10.34,2015-04-01 06:29:00,
2015-04-01 02:34:00,27.1,1.1,30.00,NE,46,0.0,0.0,32,0.00,,,0.00,WeatherDisplay:10.34,2015-04-01 06:34:00,
2015-04-01 02:39:00,26.8,0.8,30.00,NE,46,0.0,0.0,32,0.00,,,0.00,WeatherDisplay:10.34,2015-04-01 06:39:00,
2015-04-01 02:44:00,26.6,0.7,30.00,NE,46,0.0,0.0,32,0.00,,,0.00,WeatherDisplay:10.34,2015-04-01 06:44:00,
2015-04-01 02:49:00,26.6,1.3,30.00,NE,46,0.0,0.0,33,0.00,,,0.00,WeatherDisplay:10.34,2015-04-01 06:49:00,
2015-04-01 02:54:00,26.6,1.3,30.00,NE,46,0.0,0.0,33,0.00,,,0.00,WeatherDisplay:10.34,2015-04-01 06:54:00,
2015-04-01 02:59:00,26.2,1.0,30.00,NE,46,0.0,0.0,33,0.00,,,0.00,WeatherDisplay:10.34,2015-04-01 06:59:00,
2015-04-01 03:04:00,26.2,1.0,30.00,NE,46,0.0,0.0,33,0.00,,,0.00,WeatherDisplay:10.34,2015-04-01 07:04:00,
2015-04-01 03:09:00,26.4,1.2,30.00,NE,46,0.0,0.0,33,0.00,,,0.00,WeatherDisplay:10.34,2015-04-01 07:09:00,
2015-04-01 03:14:00,26.4,1.8,30.00,NNE,28,0.0,0.0,34,0.00,,,0.00,WeatherDisplay:10.34,2015-04-01 07:14:00,
2015-04-01 03:19:00,26.4,1.8,30.00,NNE,28,0.0,0.0,34,0.00,,,0.00,WeatherDisplay:10.34,2015-04-01 07:19:00,
2015-04-01 03:24:00,26.2,1.6,30.00,NNE,28,0.0,0.0,34,0.00,,,0.00,WeatherDisplay:10.34,2015-04-01 07:24:00,
2015-04-01 03:29:00,26.1,1.5,30.00,NNE,28,0.0,0.0,34,0.00,,,0.00,WeatherDisplay:10.34,2015-04-01 07:29:00,
2015-04-01 03:34:00,25.9,1.3,30.00,NNE,28,0.0,0.0,34,0.00,,,0.00,WeatherDisplay:10.34,2015-04-01 07:34:00,
2015-04-01 03:39:00,25.7,1.2,30.00,NNE,28,0.0,0.0,34,0.00,,,0.00,WeatherDisplay:10.34,2015-04-01 07:39:00,
2015-04-01 03:44:00,25.5,1.6,30.00,NNE,28,0.0,0.0,35,0.00,,,0.00,WeatherDisplay:10.34,2015-04-01 07:44:00,
2015-04-01 03:49:00,25.5,1.6,30.00,NNE,28,0.0,0.0,35,0.00,,,0.00,WeatherDisplay:10.34,2015-04-01 07:49:00,
2015-04-01 03:54:00,25.5,1.6,30.00,NNE,28,0.0,0.0,35,0.00,,,0.00,WeatherDisplay:10.34,2015-04-01 07:54:00,
2015-04-01 03:59:00,25.3,1.5,30.00,NNE,28,0.0,0.0,35,0.00,,,0.00,WeatherDisplay:10.34,2015-04-01 07:59:00,
2015-04-01 04:04:00,25.2,1.3,30.00,NNE,28,0.0,0.0,35,0.00,,,0.00,WeatherDisplay:10.34,2015-04-01 08:04:00,
2015-04-01 04:09:00,25.3,1.5,30.00,NNE,28,0.0,0.0,35,0.00,,,0.00,WeatherDisplay:10.34,2015-04-01 08:09:00,
2015-04-01 04:14:00,25.3,1.5,30.00,NNE,28,0.0,0.0,35,0.00,,,0.00,WeatherDisplay:10.34,2015-04-01 08:14:00,
2015-04-01 04:19:00,25.3,1.5,30.00,NNE,28,0.0,0.0,35,0.00,,,0.00,WeatherDisplay:10.34,2015-04-01 08:19:00,
2015-04-01 04:24:00,25.3,2.1,30.00,NNE,28,0.0,0.0,36,0.00,,,0.00,WeatherDisplay:10.34,2015-04-01 08:24:00,
2015-04-01 04:29:00,25.3,1.5,30.03,NNE,28,0.0,5.0,35,0.00,,,0.00,WeatherDisplay:10.34,2015-04-01 08:29:00,
2015-04-01 04:34:00,25.5,1.6,30.03,NNE,25,0.0,3.0,35,0.00,,,0.00,WeatherDisplay:10.34,2015-04-01 08:34:00,
2015-04-01 04:39:00,25.5,1.6,30.03,North,1,0.0,5.0,35,0.00,,,0.00,WeatherDisplay:10.34,2015-04-01 08:39:00,
2015-04-01 04:44:00,25.9,1.3,30.03,North,351,0.0,0.0,34,0.00,,,0.00,WeatherDisplay:10.34,2015-04-01 08:44:00,
2015-04-01 04:49:00,26.1,1.5,30.03,North,351,4.0,6.0,34,0.00,,,0.00,WeatherDisplay:10.34,2015-04-01 08:49:00,
2015-04-01 04:54:00,26.1,1.5,30.03,North,2,0.0,2.0,34,0.00,,,0.00,WeatherDisplay:10.34,2015-04-01 08:54:00,
2015-04-01 04:59:00,26.2,1.6,30.03,North,351,0.0,6.0,34,0.00,,,0.00,WeatherDisplay:10.34,2015-04-01 08:59:00,
2015-04-01 05:04:00,26.2,1.6,30.03,NNE,27,0.0,3.0,34,0.00,,,0.00,WeatherDisplay:10.34,2015-04-01 09:04:00,
2015-04-01 05:09:00,26.2,1.6,30.03,NNW,336,0.0,3.0,34,0.00,,,0.00,WeatherDisplay:10.34,2015-04-01 09:09:00,
2015-04-01 05:14:00,26.2,1.6,30.03,NNW,336,0.0,0.0,34,0.00,,,0.00,WeatherDisplay:10.34,2015-04-01 09:14:00,
2015-04-01 05:19:00,26.2,1.6,30.03,NNW,336,0.0,0.0,34,0.00,,,0.00,WeatherDisplay:10.34,2015-04-01 09:19:00,
2015-04-01 05:24:00,26.1,1.5,30.03,NNW,336,0.0,0.0,34,0.00,,,0.00,WeatherDisplay:10.34,2015-04-01 09:24:00,
2015-04-01 05:29:00,25.9,1.9,30.03,NNW,336,0.0,0.0,35,0.00,,,0.00,WeatherDisplay:10.34,2015-04-01 09:29:00,
2015-04-01 05:34:00,25.9,1.9,30.03,NNW,336,0.0,0.0,35,0.00,,,0.00,WeatherDisplay:10.34,2015-04-01 09:34:00,
2015-04-01 05:39:00,25.5,2.2,30.03,NNW,336,0.0,2.0,36,0.00,,,0.00,WeatherDisplay:10.34,2015-04-01 09:39:00,
2015-04-01 05:44:00,25.5,2.2,30.06,NNW,336,0.0,0.0,36,0.00,,,0.00,WeatherDisplay:10.34,2015-04-01 09:44:00,
2015-04-01 05:49:00,25.5,2.2,30.06,NNW,347,0.0,2.0,36,0.00,,,0.00,WeatherDisplay:10.34,2015-04-01 09:49:00,
2015-04-01 05:54:00,25.5,2.2,30.06,North,351,0.0,3.0,36,0.00,,,0.00,WeatherDisplay:10.34,2015-04-01 09:54:00,
2015-04-01 05:59:00,25.7,2.4,30.06,North,351,0.0,6.0,36,0.00,,,0.00,WeatherDisplay:10.34,2015-04-01 09:59:00,
2015-04-01 06:04:00,25.7,1.8,30.06,NNW,345,0.0,0.0,35,0.00,,,0.00,WeatherDisplay:10.34,2015-04-01 10:04:00,
2015-04-01 06:09:00,25.9,1.3,30.06,North,2,3.0,9.0,34,0.00,,,0.00,WeatherDisplay:10.34,2015-04-01 10:09:00,
2015-04-01 06:14:00,26.1,1.5,30.06,North,0,0.0,0.0,34,0.00,,,0.00,WeatherDisplay:10.34,2015-04-01 10:14:00,
2015-04-01 06:19:00,26.1,1.5,30.06,North,351,3.0,5.0,34,0.00,,,0.00,WeatherDisplay:10.34,2015-04-01 10:19:00,
2015-04-01 06:24:00,26.1,1.5,30.06,North,5,0.0,7.0,34,0.00,,,0.00,WeatherDisplay:10.34,2015-04-01 10:24:00,
2015-04-01 06:29:00,26.1,0.8,30.06,North,5,4.0,10.0,33,0.00,,,0.00,WeatherDisplay:10.34,2015-04-01 10:29:00,
2015-04-01 06:34:00,26.1,1.5,30.06,North,351,4.0,7.0,34,0.00,,,0.00,WeatherDisplay:10.34,2015-04-01 10:34:00,
2015-04-01 06:39:00,26.1,0.8,30.06,North,351,0.0,2.0,33,0.00,,,0.00,WeatherDisplay:10.34,2015-04-01 10:39:00,
2015-04-01 06:44:00,26.1,1.5,30.09,North,0,0.0,0.0,34,0.00,,,0.00,WeatherDisplay:10.34,2015-04-01 10:44:00,
2015-04-01 06:49:00,26.1,0.8,30.09,NNW,346,0.0,2.0,33,0.00,,,0.00,WeatherDisplay:10.34,2015-04-01 10:49:00,
2015-04-01 06:54:00,26.1,0.8,30.09,North,4,0.0,0.0,33,0.00,,,0.00,WeatherDisplay:10.34,2015-04-01 10:54:00,
2015-04-01 06:59:00,26.1,0.8,30.09,NNE,33,4.0,9.0,33,0.00,,,0.00,WeatherDisplay:10.34,2015-04-01 10:59:00,
2015-04-01 07:04:00,26.1,0.8,30.09,North,351,4.0,8.0,33,0.00,,,0.00,WeatherDisplay:10.34,2015-04-01 11:04:00,
2015-04-01 07:09:00,26.1,0.8,30.09,NNW,337,6.0,7.0,33,0.00,,,0.00,WeatherDisplay:10.34,2015-04-01 11:09:00,
2015-04-01 07:14:00,26.2,1.0,30.09,North,351,0.0,0.0,33,0.00,,,0.00,WeatherDisplay:10.34,2015-04-01 11:14:00,
2015-04-01 07:19:00,26.2,1.0,30.09,NE,36,0.0,6.0,33,0.00,,,0.00,WeatherDisplay:10.34,2015-04-01 11:19:00,
2015-04-01 07:24:00,26.4,1.2,30.09,NNW,346,0.0,5.0,33,0.00,,,0.00,WeatherDisplay:10.34,2015-04-01 11:24:00,
2015-04-01 07:29:00,26.4,1.2,30.12,North,0,0.0,0.0,33,0.00,,,0.00,WeatherDisplay:10.34,2015-04-01 11:29:00,
2015-04-01 07:34:00,26.6,1.3,30.12,NNE,12,0.0,0.0,33,0.00,,,0.00,WeatherDisplay:10.34,2015-04-01 11:34:00,
2015-04-01 07:39:00,26.6,1.3,30.12,North,6,0.0,5.0,33,0.00,,,0.00,WeatherDisplay:10.34,2015-04-01 11:39:00,
2015-04-01 07:44:00,26.8,1.5,30.12,West,270,3.0,6.0,33,0.00,,,0.00,WeatherDisplay:10.34,2015-04-01 11:44:00,
2015-04-01 07:49:00,27.0,1.6,30.12,North,1,0.0,6.0,33,0.00,,,0.00,WeatherDisplay:10.34,2015-04-01 11:49:00,
2015-04-01 07:54:00,27.1,1.8,30.12,NW,307,0.0,3.0,33,0.00,,,0.00,WeatherDisplay:10.34,2015-04-01 11:54:00,
2015-04-01 07:59:00,27.1,1.8,30.12,NW,326,3.0,8.0,33,0.00,,,0.00,WeatherDisplay:10.34,2015-04-01 11:59:00,
2015-04-01 08:04:00,27.3,2.0,30.12,NE,37,0.0,0.0,33,0.00,,,0.00,WeatherDisplay:10.34,2015-04-01 12:04:00,
2015-04-01 08:09:00,27.5,1.4,30.12,NNE,26,5.0,8.0,32,0.00,,,0.00,WeatherDisplay:10.34,2015-04-01 12:09:00,
2015-04-01 08:14:00,27.7,1.6,30.12,NNE,33,3.0,6.0,32,0.00,,,0.00,WeatherDisplay:10.34,2015-04-01 12:14:00,
2015-04-01 08:19:00,27.9,1.8,30.12,North,4,3.0,9.0,32,0.00,,,0.00,WeatherDisplay:10.34,2015-04-01 12:19:00,
2015-04-01 08:24:00,28.0,1.9,30.12,NNE,28,5.0,9.0,32,0.00,,,0.00,WeatherDisplay:10.34,2015-04-01 12:24:00,
2015-04-01 08:29:00,28.0,1.9,30.12,NE,44,5.0,10.0,32,0.00,,,0.00,WeatherDisplay:10.34,2015-04-01 12:29:00,
2015-04-01 08:34:00,28.2,2.1,30.12,North,2,4.0,7.0,32,0.00,,,0.00,WeatherDisplay:10.34,2015-04-01 12:34:00,
2015-04-01 08:39:00,28.4,2.2,30.12,SW,233,0.0,0.0,32,0.00,,,0.00,WeatherDisplay:10.34,2015-04-01 12:39:00,
2015-04-01 08:44:00,28.6,2.4,30.12,NNE,27,0.0,3.0,32,0.00,,,0.00,WeatherDisplay:10.34,2015-04-01 12:44:00,
2015-04-01 08:49:00,28.8,2.6,30.12,NNW,341,0.0,7.0,32,0.00,,,0.00,WeatherDisplay:10.34,2015-04-01 12:49:00,
2015-04-01 08:54:00,28.9,2.0,30.12,ENE,70,5.0,7.0,31,0.00,,,0.00,WeatherDisplay:10.34,2015-04-01 12:54:00,
2015-04-01 08:59:00,29.1,2.2,30.12,East,87,5.0,12.0,31,0.00,,,0.00,WeatherDisplay:10.34,2015-04-01 12:59:00,
2015-04-01 09:04:00,29.1,2.2,30.12,NE,54,4.0,7.0,31,0.00,,,0.00,WeatherDisplay:10.34,2015-04-01 13:04:00,
2015-04-01 09:09:00,29.5,2.5,30.12,West,279,4.0,7.0,31,0.00,,,0.00,WeatherDisplay:10.34,2015-04-01 13:09:00,
2015-04-01 09:14:00,29.5,2.5,30.16,NNW,336,6.0,12.0,31,0.00,,,0.00,WeatherDisplay:10.34,2015-04-01 13:14:00,
2015-04-01 09:19:00,29.7,2.0,30.16,North,9,3.0,7.0,30,0.00,,,0.00,WeatherDisplay:10.34,2015-04-01 13:19:00,
2015-04-01 09:24:00,29.7,2.7,30.16,NNW,339,6.0,8.0,31,0.00,,,0.00,WeatherDisplay:10.34,2015-04-01 13:24:00,
2015-04-01 09:30:00,29.8,2.8,30.16,NNW,331,4.0,6.0,31,0.00,,,0.00,WeatherDisplay:10.34,2015-04-01 13:30:00,
2015-04-01 09:35:00,30.2,2.4,30.16,NNE,18,6.0,9.0,30,0.00,,,0.00,WeatherDisplay:10.34,2015-04-01 13:35:00,
2015-04-01 09:40:00,30.4,3.3,30.16,NE,39,4.0,5.0,31,0.00,,,0.00,WeatherDisplay:10.34,2015-04-01 13:40:00,
2015-04-01 09:45:00,30.6,2.7,30.16,NE,51,3.0,5.0,30,0.00,,,0.00,WeatherDisplay:10.34,2015-04-01 13:45:00,
2015-04-01 09:50:00,30.6,2.7,30.16,ENE,65,0.0,3.0,30,0.00,,,0.00,WeatherDisplay:10.34,2015-04-01 13:50:00,
2015-04-01 09:55:00,31.1,3.2,30.16,East,84,4.0,6.0,30,0.00,,,0.00,WeatherDisplay:10.34,2015-04-01 13:55:00,
2015-04-01 10:00:00,31.1,3.2,30.16,North,8,6.0,13.0,30,0.00,,,0.00,WeatherDisplay:10.34,2015-04-01 14:00:00,
2015-04-01 10:05:00,31.3,3.4,30.16,North,351,7.0,14.0,30,0.00,,,0.00,WeatherDisplay:10.34,2015-04-01 14:05:00,
2015-04-01 10:10:00,31.3,1.9,30.16,NE,55,4.0,7.0,28,0.00,,,0.00,WeatherDisplay:10.34,2015-04-01 14:10:00,
2015-04-01 10:15:00,31.5,2.0,30.16,NNE,27,0.0,5.0,28,0.00,,,0.00,WeatherDisplay:10.34,2015-04-01 14:15:00,
2015-04-01 10:20:00,31.6,2.2,30.15,North,8,6.0,8.0,28,0.00,,,0.00,WeatherDisplay:10.34,2015-04-01 14:20:00,
2015-04-01 10:25:00,32.0,2.5,30.15,East,97,4.0,5.0,28,0.00,,,0.00,WeatherDisplay:10.34,2015-04-01 14:25:00,
2015-04-01 10:30:00,32.2,2.7,30.15,North,351,0.0,8.0,28,0.00,,,0.00,WeatherDisplay:10.34,2015-04-01 14:30:00,
2015-04-01 10:35:00,32.4,2.8,30.15,ENE,68,0.0,3.0,28,0.00,,,0.00,WeatherDisplay:10.34,2015-04-01 14:35:00,
2015-04-01 10:40:00,32.7,4.6,30.15,NE,36,4.0,6.0,30,0.00,,,0.00,WeatherDisplay:10.34,2015-04-01 14:40:00,
2015-04-01 10:45:00,33.1,5.0,30.15,WNW,288,0.0,3.0,30,0.00,,,0.00,WeatherDisplay:10.34,2015-04-01 14:45:00,
2015-04-01 10:50:00,33.3,5.1,30.15,North,10,3.0,8.0,30,0.00,,,0.00,WeatherDisplay:10.34,2015-04-01 14:50:00,
2015-04-01 10:55:00,33.4,3.0,30.15,NNE,29,0.0,3.0,27,0.00,,,0.00,WeatherDisplay:10.34,2015-04-01 14:55:00,
2015-04-01 11:00:00,33.6,5.4,30.15,NNW,339,0.0,3.0,30,0.00,,,0.00,WeatherDisplay:10.34,2015-04-01 15:00:00,
2015-04-01 11:05:00,33.8,5.6,30.15,East,81,0.0,3.0,30,0.00,,,0.00,WeatherDisplay:10.34,2015-04-01 15:05:00,
2015-04-01 11:10:00,33.8,3.3,30.15,NE,35,0.0,5.0,27,0.00,,,0.00,WeatherDisplay:10.34,2015-04-01 15:10:00,
2015-04-01 11:15:00,34.2,3.6,30.12,NNE,26,6.0,9.0,27,0.00,,,0.00,WeatherDisplay:10.34,2015-04-01 15:15:00,
2015-04-01 11:20:00,34.3,3.8,30.12,NNW,341,0.0,6.0,27,0.00,,,0.00,WeatherDisplay:10.34,2015-04-01 15:20:00,
2015-04-01 11:25:00,34.3,3.8,30.12,North,351,7.0,10.0,27,0.00,,,0.00,WeatherDisplay:10.34,2015-04-01 15:25:00,
2015-04-01 11:30:00,34.3,2.1,30.12,NNW,347,0.0,2.0,25,0.00,,,0.00,WeatherDisplay:10.34,2015-04-01 15:30:00,
2015-04-01 11:35:00,34.7,4.1,30.12,East,88,0.0,0.0,27,0.00,,,0.00,WeatherDisplay:10.34,2015-04-01 15:35:00,
2015-04-01 11:40:00,34.9,4.2,30.12,North,351,3.0,8.0,27,0.00,,,0.00,WeatherDisplay:10.34,2015-04-01 15:40:00,
2015-04-01 11:45:00,35.1,1.8,30.12,NNE,13,0.0,3.0,24,0.00,,,0.00,WeatherDisplay:10.34,2015-04-01 15:45:00,
2015-04-01 11:50:00,35.2,2.0,30.12,NE,37,3.0,5.0,24,0.00,,,0.00,WeatherDisplay:10.34,2015-04-01 15:50:00,
2015-04-01 11:55:00,35.4,2.1,30.12,NE,56,4.0,6.0,24,0.00,,,0.00,WeatherDisplay:10.34,2015-04-01 15:55:00,
2015-04-01 12:00:00,35.6,2.3,30.12,West,259,0.0,3.0,24,0.00,,,0.00,WeatherDisplay:10.34,2015-04-01 16:00:00,
2015-04-01 12:05:00,35.8,5.0,30.12,North,1,3.0,6.0,27,0.00,,,0.00,WeatherDisplay:10.34,2015-04-01 16:05:00,
2015-04-01 12:10:00,36.0,2.6,30.12,NE,41,0.0,8.0,24,0.00,,,0.00,WeatherDisplay:10.34,2015-04-01 16:10:00,
2015-04-01 12:15:00,36.1,2.8,30.12,NNE,24,0.0,0.0,24,0.00,,,0.00,WeatherDisplay:10.34,2015-04-01 16:15:00,
2015-04-01 12:20:00,36.3,5.5,30.12,NNE,15,5.0,7.0,27,0.00,,,0.00,WeatherDisplay:10.34,2015-04-01 16:20:00,
2015-04-01 12:25:00,36.3,5.5,30.12,SE,134,4.0,6.0,27,0.00,,,0.00,WeatherDisplay:10.34,2015-04-01 16:25:00,
2015-04-01 12:30:00,36.7,5.0,30.12,NE,35,5.0,7.0,26,0.00,,,0.00,WeatherDisplay:10.34,2015-04-01 16:30:00,
2015-04-01 12:35:00,36.7,3.2,30.12,NE,45,0.0,2.0,24,0.00,,,0.00,WeatherDisplay:10.34,2015-04-01 16:35:00,
2015-04-01 12:40:00,36.7,3.2,30.12,ENE,57,0.0,0.0,24,0.00,,,0.00,WeatherDisplay:10.34,2015-04-01 16:40:00,
2015-04-01 12:45:00,36.5,3.1,30.12,NE,38,3.0,5.0,24,0.00,,,0.00,WeatherDisplay:10.34,2015-04-01 16:45:00,
2015-04-01 12:50:00,36.6,3.2,30.12,NNW,342,4.0,7.0,24,0.00,,,0.00,WeatherDisplay:10.34,2015-04-01 16:50:00,
2015-04-01 12:55:00,36.9,3.4,30.12,SW,228,3.0,12.0,24,0.00,,,0.00,WeatherDisplay:10.34,2015-04-01 16:55:00,
2015-04-01 13:00:00,36.9,3.4,30.12,SW,231,4.0,6.0,24,0.00,,,0.00,WeatherDisplay:10.34,2015-04-01 17:00:00,
2015-04-01 13:05:00,36.9,3.4,30.12,North,351,4.0,10.0,24,0.00,,,0.00,WeatherDisplay:10.34,2015-04-01 17:05:00,
2015-04-01 13:10:00,36.7,3.2,30.12,NNW,347,7.0,12.0,24,0.00,,,0.00,WeatherDisplay:10.34,2015-04-01 17:10:00,
2015-04-01 13:15:00,36.7,3.2,30.12,North,2,4.0,9.0,24,0.00,,,0.00,WeatherDisplay:10.34,2015-04-01 17:15:00,
2015-04-01 13:20:00,36.7,3.2,30.12,North,0,5.0,9.0,24,0.00,,,0.00,WeatherDisplay:10.34,2015-04-01 17:20:00,
2015-04-01 13:25:00,36.7,3.2,30.12,NW,320,4.0,9.0,24,0.00,,,0.00,WeatherDisplay:10.34,2015-04-01 17:25:00,
2015-04-01 13:30:00,36.6,3.1,30.15,NNW,327,4.0,7.0,24,0.00,,,0.00,WeatherDisplay:10.34,2015-04-01 17:30:00,
2015-04-01 13:35:00,36.7,1.3,30.15,NNW,342,5.0,9.0,22,0.00,,,0.00,WeatherDisplay:10.34,2015-04-01 17:35:00,
2015-04-01 13:40:00,36.9,3.4,30.15,SW,231,0.0,13.0,24,0.00,,,0.00,WeatherDisplay:10.34,2015-04-01 17:40:00,
2015-04-01 13:45:00,36.7,3.2,30.15,NNW,332,6.0,9.0,24,0.00,,,0.00,WeatherDisplay:10.34,2015-04-01 17:45:00,
2015-04-01 13:50:00,36.4,2.1,30.15,North,11,7.0,12.0,23,0.00,,,0.00,WeatherDisplay:10.34,2015-04-01 17:50:00,
2015-04-01 13:55:00,36.7,3.2,30.15,North,1,7.0,9.0,24,0.00,,,0.00,WeatherDisplay:10.34,2015-04-01 17:55:00,
2015-04-01 14:00:00,36.7,0.3,30.15,WSW,254,7.0,14.0,21,0.00,,,0.00,WeatherDisplay:10.34,2015-04-01 18:00:00,
2015-04-01 14:05:00,36.5,2.1,30.15,North,351,6.0,12.0,23,0.00,,,0.00,WeatherDisplay:10.34,2015-04-01 18:05:00,
2015-04-01 14:10:00,36.7,0.3,30.15,NNW,334,8.0,12.0,21,0.00,,,0.00,WeatherDisplay:10.34,2015-04-01 18:10:00,
2015-04-01 14:15:00,36.7,0.3,30.15,NNW,332,5.0,10.0,21,0.00,,,0.00,WeatherDisplay:10.34,2015-04-01 18:15:00,
2015-04-01 14:20:00,36.7,0.4,30.15,West,281,4.0,9.0,21,0.00,,,0.00,WeatherDisplay:10.34,2015-04-01 18:20:00,
2015-04-01 14:25:00,36.9,0.5,30.15,NW,315,4.0,8.0,21,0.00,,,0.00,WeatherDisplay:10.34,2015-04-01 18:25:00,
2015-04-01 14:30:00,36.9,0.5,30.15,NNE,24,4.0,5.0,21,0.00,,,0.00,WeatherDisplay:10.34,2015-04-01 18:30:00,
2015-04-01 14:35:00,37.0,0.6,30.15,WSW,243,4.0,7.0,21,0.00,,,0.00,WeatherDisplay:10.34,2015-04-01 18:35:00,
2015-04-01 14:40:00,37.0,0.6,30.15,North,2,3.0,12.0,21,0.00,,,0.00,WeatherDisplay:10.34,2015-04-01 18:40:00,
2015-04-01 14:45:00,37.0,0.6,30.15,NNE,27,4.0,7.0,21,0.00,,,0.00,WeatherDisplay:10.34,2015-04-01 18:45:00,
2015-04-01 14:50:00,37.0,0.6,30.15,North,5,4.0,7.0,21,0.00,,,0.00,WeatherDisplay:10.34,2015-04-01 18:50:00,
2015-04-01 14:55:00,37.0,0.6,30.15,NW,308,4.0,8.0,21,0.00,,,0.00,WeatherDisplay:10.34,2015-04-01 18:55:00,
2015-04-01 15:00:00,36.9,-1.6,30.15,NW,308,5.0,10.0,19,0.00,,,0.00,WeatherDisplay:10.34,2015-04-01 19:00:00,
2015-04-01 15:05:00,36.7,0.3,30.16,NNW,343,5.0,9.0,21,0.00,,,0.00,WeatherDisplay:10.34,2015-04-01 19:05:00,
2015-04-01 15:10:00,36.9,0.5,30.15,South,173,4.0,8.0,21,0.00,,,0.00,WeatherDisplay:10.34,2015-04-01 19:10:00,
2015-04-01 15:15:00,37.0,-1.5,30.15,NNW,347,5.0,10.0,19,0.00,,,0.00,WeatherDisplay:10.34,2015-04-01 19:15:00,
2015-04-01 15:20:00,37.0,0.6,30.15,NNE,14,5.0,8.0,21,0.00,,,0.00,WeatherDisplay:10.34,2015-04-01 19:20:00,
2015-04-01 15:25:00,37.0,0.6,30.15,NNW,339,3.0,9.0,21,0.00,,,0.00,WeatherDisplay:10.34,2015-04-01 19:25:00,
2015-04-01 15:30:00,37.0,0.6,30.15,NNW,340,3.0,8.0,21,0.00,,,0.00,WeatherDisplay:10.34,2015-04-01 19:30:00,
2015-04-01 15:35:00,37.0,0.6,30.15,East,90,4.0,7.0,21,0.00,,,0.00,WeatherDisplay:10.34,2015-04-01 19:35:00,
2015-04-01 15:40:00,37.0,-1.5,30.16,North,10,4.0,7.0,19,0.00,,,0.00,WeatherDisplay:10.34,2015-04-01 19:40:00,
2015-04-01 15:45:00,37.0,0.6,30.19,North,351,0.0,6.0,21,0.00,,,0.00,WeatherDisplay:10.34,2015-04-01 19:45:00,
2015-04-01 15:50:00,37.0,0.6,30.19,NW,324,4.0,9.0,21,0.00,,,0.00,WeatherDisplay:10.34,2015-04-01 19:50:00,
2015-04-01 15:55:00,37.0,0.6,30.19,NNW,337,4.0,7.0,21,0.00,,,0.00,WeatherDisplay:10.34,2015-04-01 19:55:00,
2015-04-01 16:00:00,36.9,-1.6,30.19,North,8,3.0,8.0,19,0.00,,,0.00,WeatherDisplay:10.34,2015-04-01 20:00:00,
2015-04-01 16:05:00,36.9,0.5,30.19,NW,320,0.0,3.0,21,0.00,,,0.00,WeatherDisplay:10.34,2015-04-01 20:05:00,
2015-04-01 16:10:00,37.0,0.6,30.19,North,7,0.0,3.0,21,0.00,,,0.00,WeatherDisplay:10.34,2015-04-01 20:10:00,
2015-04-01 16:15:00,36.9,0.5,30.16,SE,138,4.0,5.0,21,0.00,,,0.00,WeatherDisplay:10.34,2015-04-01 20:15:00,
2015-04-01 16:20:00,36.9,0.5,30.16,North,7,0.0,6.0,21,0.00,,,0.00,WeatherDisplay:10.34,2015-04-01 20:20:00,
2015-04-01 16:25:00,36.9,0.5,30.16,North,0,5.0,9.0,21,0.00,,,0.00,WeatherDisplay:10.34,2015-04-01 20:25:00,
2015-04-01 16:30:00,36.9,-1.6,30.19,NW,322,3.0,5.0,19,0.00,,,0.00,WeatherDisplay:10.34,2015-04-01 20:30:00,
2015-04-01 16:35:00,36.5,-1.9,30.19,WSW,244,5.0,10.0,19,0.00,,,0.00,WeatherDisplay:10.34,2015-04-01 20:35:00,
2015-04-01 16:40:00,36.5,-1.9,30.19,North,10,5.0,14.0,19,0.00,,,0.00,WeatherDisplay:10.34,2015-04-01 20:40:00,
2015-04-01 16:45:00,36.5,-1.9,30.19,East,87,4.0,8.0,19,0.00,,,0.00,WeatherDisplay:10.34,2015-04-01 20:45:00,
2015-04-01 16:50:00,36.5,-1.9,30.19,NNE,17,4.0,6.0,19,0.00,,,0.00,WeatherDisplay:10.34,2015-04-01 20:50:00,
2015-04-01 16:55:00,36.7,0.3,30.19,NE,34,0.0,5.0,21,0.00,,,0.00,WeatherDisplay:10.34,2015-04-01 20:55:00,
2015-04-01 17:00:00,36.7,-1.8,30.19,SW,233,0.0,6.0,19,0.00,,,0.00,WeatherDisplay:10.34,2015-04-01 21:00:00,
2015-04-01 17:05:00,36.7,-1.8,30.18,NE,38,0.0,2.0,19,0.00,,,0.00,WeatherDisplay:10.34,2015-04-01 21:05:00,
2015-04-01 17:10:00,36.7,-1.8,30.18,West,263,0.0,3.0,19,0.00,,,0.00,WeatherDisplay:10.34,2015-04-01 21:10:00,
2015-04-01 17:15:00,36.7,-1.8,30.18,North,2,3.0,6.0,19,0.00,,,0.00,WeatherDisplay:10.34,2015-04-01 21:15:00,
2015-04-01 17:20:00,36.5,-1.9,30.19,South,191,3.0,6.0,19,0.00,,,0.00,WeatherDisplay:10.34,2015-04-01 21:20:00,
2015-04-01 17:25:00,36.5,0.2,30.19,NNE,23,3.0,6.0,21,0.00,,,0.00,WeatherDisplay:10.34,2015-04-01 21:25:00,
2015-04-01 17:30:00,36.1,-2.2,30.19,North,351,0.0,6.0,19,0.00,,,0.00,WeatherDisplay:10.34,2015-04-01 21:30:00,
2015-04-01 17:35:00,36.1,0.9,30.19,WSW,255,3.0,6.0,22,0.00,,,0.00,WeatherDisplay:10.34,2015-04-01 21:35:00,
2015-04-01 17:40:00,36.1,-2.2,30.19,SW,232,0.0,5.0,19,0.00,,,0.00,WeatherDisplay:10.34,2015-04-01 21:40:00,
2015-04-01 17:45:00,36.0,-2.4,30.22,NW,321,3.0,7.0,19,0.00,,,0.00,WeatherDisplay:10.34,2015-04-01 21:45:00,
2015-04-01 17:50:00,35.8,-2.5,30.22,North,5,0.0,3.0,19,0.00,,,0.00,WeatherDisplay:10.34,2015-04-01 21:50:00,
2015-04-01 17:55:00,35.6,-2.7,30.22,NNE,12,5.0,9.0,19,0.00,,,0.00,WeatherDisplay:10.34,2015-04-01 21:55:00,